Mora, MN

10:56 AM CDT on June 28, 2017 (GMT -0500)
Mora Municipal

Weather History for KJMR - May, 2014

Change the Weather History Date:

Saturday, May 17, 2014

  Actual Average Record
Temperature  
Mean Temperature 50 °F -  
Max Temperature 64 °F 72 °F 89 °F (1972)
Min Temperature 37 °F 41 °F 27 °F (1973)
Degree Days  
Heating Degree Days 14    
Moisture  
Dew Point 30 °F    
Average Humidity 47    
Maximum Humidity 76    
Minimum Humidity 26    
Precipitation  
Precipitation 0.00 in - - ()
Sea Level Pressure  
Sea Level Pressure 30.00 in    
Wind  
Wind Speed 2 mph (WNW)    
Max Wind Speed 12 mph    
Max Gust Speed 22 mph    
Visibility 10 miles    
Events      
Averages and records for this station are not official NWS values.
T = Trace of Precipitation, MM = Missing Value Source: NWS Daily Summary

Daily Weather History Graph

Daily Weather History Graph

Search for Another Location

Airport or City:

Trip Planner

Search our weather history database for the weather conditions in past years. The results will help you decide how hot, cold, wet, or windy it might be!

Date:

Astronomy

May. 17, 2014 Rise Set
Actual Time 5:38 AM CDT 8:40 PM CDT
Civil Twilight 5:03 AM CDT 9:16 PM CDT
Nautical Twilight 4:18 AM CDT 10:01 PM CDT
Astronomical Twilight 3:24 AM CDT 10:56 PM CDT
Moon 11:40 PM CDT (5/17) 8:23 AM CDT (5/17)
Length of Visible Light 16h 12m
Length of Day
15h 01m
Waning Gibbous, 89% of the Moon is Illuminated
May 17
Waning Gibbous
May 21
Last Quarter
May 28
New
Jun 5
First Quarter
Jun 12
Full

Hourly Weather History & Observations

Time (CDT) Temp. Windchill Dew Point Humidity Pressure Visibility Wind Dir Wind Speed Gust Speed Precip Events Conditions
12:14 AM 39.2 °F - 30.2 °F 70% 30.04 in 10.0 mi Calm Calm - N/A   Mostly Cloudy
12:34 AM 39.2 °F - 30.2 °F 70% 30.04 in 10.0 mi Calm Calm - N/A   Mostly Cloudy
12:54 AM 37.4 °F - 30.2 °F 75% 30.03 in 10.0 mi Calm Calm - N/A   Mostly Cloudy
1:14 AM 37.4 °F - 30.2 °F 75% 30.03 in 10.0 mi Calm Calm - N/A   Overcast
1:34 AM 39.2 °F - 30.2 °F 70% 30.03 in 10.0 mi Calm Calm - N/A   Overcast
1:54 AM 39.2 °F - 30.2 °F 70% 30.03 in 10.0 mi Calm Calm - N/A   Overcast
2:14 AM 39.2 °F - 30.2 °F 70% 30.03 in 10.0 mi Calm Calm - N/A   Overcast
2:34 AM 39.2 °F - 30.2 °F 70% 30.03 in 10.0 mi Calm Calm - N/A   Overcast
2:54 AM 39.2 °F - 30.2 °F 70% 30.02 in 10.0 mi Calm Calm - N/A   Overcast
3:14 AM 39.2 °F - 30.2 °F 70% 30.03 in 10.0 mi Calm Calm - N/A   Overcast
3:34 AM 39.2 °F - 30.2 °F 70% 30.02 in 10.0 mi Calm Calm - N/A   Overcast
3:54 AM 39.2 °F - 30.2 °F 70% 30.02 in 10.0 mi Calm Calm - N/A   Mostly Cloudy
4:14 AM 39.2 °F - 28.4 °F 65% 30.02 in 10.0 mi Calm Calm - N/A   Mostly Cloudy
4:34 AM 39.2 °F - 30.2 °F 70% 30.02 in 10.0 mi Calm Calm - N/A   Mostly Cloudy
4:54 AM 39.2 °F - 30.2 °F 70% 30.02 in 10.0 mi Calm Calm - N/A   Mostly Cloudy
5:14 AM 37.4 °F - 30.2 °F 75% 30.02 in 10.0 mi Calm Calm - N/A   Mostly Cloudy
5:34 AM 37.4 °F - 28.4 °F 70% 30.02 in 10.0 mi Calm Calm - N/A   Mostly Cloudy
5:54 AM 37.4 °F - 30.2 °F 75% 30.03 in 10.0 mi Calm Calm - N/A   Scattered Clouds
6:14 AM 37.4 °F - 30.2 °F 75% 30.03 in 10.0 mi Calm Calm - N/A   Scattered Clouds
6:34 AM 37.4 °F - 30.2 °F 75% 30.03 in 10.0 mi Calm Calm - N/A   Clear
6:54 AM 41.0 °F - 30.2 °F 65% 30.03 in 10.0 mi Calm Calm - N/A   Clear
7:14 AM 42.8 °F - 32.0 °F 66% 30.03 in 10.0 mi Calm Calm - N/A   Clear
7:34 AM 44.6 °F - 32.0 °F 61% 30.03 in 10.0 mi Calm Calm - N/A   Clear
7:54 AM 46.4 °F 42.4 °F 30.2 °F 53% 30.03 in 10.0 mi West 8.1 mph - N/A   Clear
8:14 AM 50.0 °F - 32.0 °F 50% 30.02 in 10.0 mi West 9.2 mph - N/A   Clear
8:34 AM 50.0 °F - 32.0 °F 50% 30.02 in 10.0 mi West 8.1 mph - N/A   Clear
8:54 AM 51.8 °F - 30.2 °F 44% 30.02 in 10.0 mi West 8.1 mph - N/A   Clear
9:14 AM 53.6 °F - 30.2 °F 41% 30.02 in 10.0 mi Calm Calm - N/A   Clear
9:34 AM 53.6 °F - 30.2 °F 41% 30.02 in 10.0 mi West 6.9 mph - N/A   Clear
9:54 AM 55.4 °F - 30.2 °F 38% 30.02 in 10.0 mi West 10.4 mph - N/A   Clear
10:14 AM 55.4 °F - 28.4 °F 36% 30.01 in 10.0 mi WNW 9.2 mph - N/A   Clear
10:34 AM 55.4 °F - 28.4 °F 36% 30.01 in 10.0 mi West 10.4 mph 16.1 mph N/A   Scattered Clouds
10:54 AM 57.2 °F - 28.4 °F 33% 30.01 in 10.0 mi Calm Calm - N/A   Scattered Clouds
11:14 AM 59.0 °F - 26.6 °F 29% 30.01 in 10.0 mi Calm Calm - N/A   Scattered Clouds
11:34 AM 59.0 °F - 26.6 °F 29% 30.01 in 10.0 mi WNW 3.5 mph 10.4 mph N/A   Scattered Clouds
11:54 AM 59.0 °F - 26.6 °F 29% 30.01 in 10.0 mi NW 6.9 mph 17.3 mph N/A   Scattered Clouds
12:14 PM 59.0 °F - 26.6 °F 29% 30.01 in 10.0 mi WNW 9.2 mph 19.6 mph N/A   Clear
12:34 PM 59.0 °F - 24.8 °F 27% 30.00 in 10.0 mi WNW 11.5 mph 17.3 mph N/A   Clear
12:54 PM 59.0 °F - 26.6 °F 29% 30.00 in 10.0 mi WSW 10.4 mph - N/A   Scattered Clouds
1:14 PM 60.8 °F - 26.6 °F 27% 29.99 in 10.0 mi NNW 6.9 mph - N/A   Scattered Clouds
1:34 PM 60.8 °F - 28.4 °F 29% 29.99 in 10.0 mi West 9.2 mph - N/A   Scattered Clouds
1:54 PM 60.8 °F - 26.6 °F 27% 29.99 in 10.0 mi West 5.8 mph 16.1 mph N/A   Scattered Clouds
2:14 PM 62.6 °F - 30.2 °F 30% 29.99 in 10.0 mi West 4.6 mph - N/A   Scattered Clouds
2:34 PM 62.6 °F - 28.4 °F 27% 29.98 in 10.0 mi Calm Calm - N/A   Scattered Clouds
2:54 PM 64.4 °F - 30.2 °F 28% 29.98 in 10.0 mi WNW 6.9 mph - N/A   Scattered Clouds
3:14 PM 62.6 °F - 26.6 °F 26% 29.97 in 10.0 mi North 4.6 mph - N/A   Scattered Clouds
3:34 PM 62.6 °F - 28.4 °F 27% 29.97 in 10.0 mi NW 10.4 mph - N/A   Scattered Clouds
3:54 PM 64.4 °F - 30.2 °F 28% 29.97 in 10.0 mi WNW 8.1 mph - N/A   Scattered Clouds
4:14 PM 62.6 °F - 30.2 °F 30% - 10.0 mi West 8.1 mph - N/A   Scattered Clouds
4:34 PM 64.4 °F - 30.2 °F 28% 29.97 in 10.0 mi West 3.5 mph - N/A   Scattered Clouds
4:54 PM 62.6 °F - 30.2 °F 30% 29.97 in 10.0 mi WSW 10.4 mph 17.3 mph N/A   Mostly Cloudy
5:14 PM 64.4 °F - 32.0 °F 30% 29.97 in 10.0 mi West 8.1 mph - N/A   Overcast
5:34 PM 64.4 °F - 32.0 °F 30% 29.97 in 10.0 mi WSW 9.2 mph - N/A   Mostly Cloudy
5:54 PM 62.6 °F - 32.0 °F 32% 29.97 in 10.0 mi Calm Calm - N/A   Scattered Clouds
6:14 PM 62.6 °F - 32.0 °F 32% 29.97 in 10.0 mi Calm Calm - N/A   Mostly Cloudy
6:34 PM 62.6 °F - 30.2 °F 30% 29.97 in 10.0 mi WNW 8.1 mph - N/A   Scattered Clouds
6:54 PM 62.6 °F - 30.2 °F 30% 29.97 in 10.0 mi Calm Calm - N/A   Scattered Clouds
7:14 PM 62.6 °F - 30.2 °F 30% 29.97 in 10.0 mi Calm Calm - N/A   Scattered Clouds
7:34 PM 62.6 °F - 30.2 °F 30% 29.97 in 10.0 mi Calm Calm - N/A   Scattered Clouds
7:53 PM 60.8 °F - 30.2 °F 31% 29.97 in 10.0 mi Calm Calm - N/A   Mostly Cloudy
8:14 PM 60.8 °F - 30.2 °F 31% 29.97 in 10.0 mi Calm Calm - N/A   Mostly Cloudy
8:34 PM 59.0 °F - 30.2 °F 34% 29.99 in 10.0 mi WNW 10.4 mph 21.9 mph N/A   Overcast
8:54 PM 59.0 °F - 32.0 °F 36% 29.99 in 10.0 mi Calm Calm - N/A   Overcast
9:14 PM 59.0 °F - 32.0 °F 36% 29.99 in 10.0 mi Calm Calm - N/A   Overcast
9:34 PM 55.4 °F - 32.0 °F 41% 29.99 in 10.0 mi Calm Calm - N/A   Scattered Clouds
9:54 PM 55.4 °F - 32.0 °F 41% 29.99 in 10.0 mi Calm Calm - N/A   Scattered Clouds
10:14 PM 51.8 °F - 33.8 °F 50% 29.99 in 10.0 mi Calm Calm - N/A   Scattered Clouds
10:34 PM 51.8 °F - 37.4 °F 58% 30.00 in 10.0 mi Calm Calm - N/A   Scattered Clouds
10:54 PM 51.8 °F - 33.8 °F 50% 29.99 in 10.0 mi Calm Calm - N/A   Mostly Cloudy
11:14 PM 50.0 °F - 37.4 °F 62% 29.99 in 10.0 mi Calm Calm - N/A   Scattered Clouds
11:34 PM 48.2 °F - 41.0 °F 76% 29.99 in 10.0 mi Calm Calm - N/A   Clear
11:54 PM 48.2 °F - 39.2 °F 71% 30.00 in 10.0 mi Calm Calm - N/A   Clear